This is the latest recevied weather packets stored in our database for station/object DJ2RF. If no packets are shown the sender has not sent any weather packets the latest 10 day(s).
| Time | Temp. | Humidity | Pressure | Rain* | Wind** | Luminosity | Snow |
|---|---|---|---|---|---|---|---|
| 1777642546 | 21.67° C | 35% | 1027 hPa | 0 mm | - | - | - |
| 1777641991 | 21.11° C | 34% | 1027.1 hPa | 0 mm | - | - | - |
| 1777641508 | 21.11° C | 35% | 1027.1 hPa | 0 mm | - | - | - |
| 1777638836 | 20.56° C | 36% | 1027.5 hPa | 0 mm | - | - | - |
| 1777638286 | 20.56° C | 36% | 1027.6 hPa | 0 mm | - | - | - |
| 1777637686 | 20° C | 36% | 1027.7 hPa | 0 mm | - | - | - |
| 1777637086 | 20° C | 37% | 1027.8 hPa | 0 mm | - | - | - |
| 1777636601 | 20° C | 37% | 1027.8 hPa | 0 mm | - | - | - |
| 1777636116 | 20° C | 33% | 1027.8 hPa | 0 mm | - | - | - |
| 1777635606 | 19.44° C | 36% | 1027.9 hPa | 0 mm | - | - | - |
| 1777635116 | 19.44° C | 36% | 1028.1 hPa | 0 mm | - | - | - |
| 1777634546 | 19.44° C | 38% | 1027.9 hPa | 0 mm | - | - | - |
| 1777634061 | 19.44° C | 37% | 1028.1 hPa | 0 mm | - | - | - |
| 1777633506 | 18.89° C | 37% | 1028.1 hPa | 0 mm | - | - | - |
| 1777633021 | 18.33° C | 39% | 1028.1 hPa | 0 mm | - | - | - |
| 1777632436 | 18.33° C | 38% | 1028.1 hPa | 0 mm | - | - | - |
| 1777631866 | 18.33° C | 38% | 1028.3 hPa | 0 mm | - | - | - |
| 1777631336 | 18.33° C | 38% | 1028.4 hPa | 0 mm | - | - | - |
| 1777630821 | 17.78° C | 40% | 1028.3 hPa | 0 mm | - | - | - |
| 1777630306 | 17.78° C | 38% | 1028.4 hPa | 0 mm | - | - | - |
| 1777629726 | 17.22° C | 38% | 1028.5 hPa | 0 mm | - | - | - |
| 1777629131 | 17.22° C | 38% | 1028.6 hPa | 0 mm | - | - | - |
| 1777628066 | 16.67° C | 40% | 1028.7 hPa | 0 mm | - | - | - |
| 1777627511 | 16.11° C | 41% | 1028.6 hPa | 0 mm | - | - | - |
| 1777627028 | 16.11° C | 40% | 1028.5 hPa | 0 mm | - | - | - |
* Rain latest hour (hover to see other rain measurements)
** Current wind speed in m/s (hover to see current wind gust speed)